Change the Weather History Date:

Thursday, December 6, 2012

  Actual Average Record
Temperature  
Mean Temperature 53 °F 46 °F  
Max Temperature 57 °F 56 °F 76 °F (1998)
Min Temperature 49 °F 36 °F 16 °F (1905)
Degree Days  
Heating Degree Days 12 19  
Month to date heating degree days 41 111  
Since 1 July heating degree days 615 664  
Cooling Degree Days 0 0  
Month to date cooling degree days 0 0  
Year to date cooling degree days 1822 1715  
Moisture  
Dew Point 36 °F    
Average Humidity 54    
Maximum Humidity 66    
Minimum Humidity 41    
Precipitation  
Precipitation T in 0.14 in 2.02 in (1983)
Month to date precipitation 0.03 0.86  
Year to date precipitation 33.08 43.94  
Snow  
Snow 0.00 in 0.00 in 3.50 in (1901)
Month to date snowfall 0.0 0.0  
Since 1 July snowfall T 0.1  
Snow Depth 0.00 in    
Sea Level Pressure  
Sea Level Pressure 30.20 in    
Wind  
Wind Speed 8 mph (NE)    
Max Wind Speed 13 mph    
Max Gust Speed 15 mph    
Visibility 10 miles    
Events      
T = Trace of Precipitation, MM = Missing Value Source: NWS Daily Summary

Daily Weather History Graph

Daily Weather History Graph

Search for Another Location

Airport or City:

Trip Planner

Search our weather history database for the weather conditions in past years. The results will help you decide how hot, cold, wet, or windy it might be!

Date:

Astronomy

Dec. 06, 2012 Rise Set
Actual Time 7:22 AM EST 5:17 PM EST
Civil Twilight 6:55 AM EST 5:45 PM EST
Nautical Twilight 6:23 AM EST 6:16 PM EST
Astronomical Twilight 5:52 AM EST 6:47 PM EST
Moon No Moon Rise 12:28 PM EST (12/6)
Length of Visible Light 10h 50m
Length of Day
9h 54m
Waning Gibbous, 49% of the Moon is Illuminated
Dec 6
Waning Gibbous
Dec 13
New
Dec 20
First Quarter
Dec 28
Full
Jan 4
Last Quarter

Hourly Weather History & Observations

Time (EST) Temp. Dew Point Humidity Pressure Visibility Wind Dir Wind Speed Gust Speed Precip Events Conditions
12:53 AM 55.9 °F 43.0 °F 62% 30.16 in 10.0 mi NE 3.5 mph - N/A   Overcast
1:53 AM 55.0 °F 43.0 °F 64% 30.16 in 10.0 mi NE 5.8 mph - N/A   Overcast
2:53 AM 55.0 °F 37.0 °F 51% 30.17 in 10.0 mi NE 9.2 mph - N/A   Overcast
3:53 AM 54.0 °F 32.0 °F 43% 30.17 in 10.0 mi NE 8.1 mph - N/A   Overcast
4:53 AM 53.1 °F 30.9 °F 43% 30.18 in 10.0 mi NNE 4.6 mph - N/A   Overcast
5:53 AM 52.0 °F 30.0 °F 43% 30.19 in 10.0 mi NNE 8.1 mph - 0.00 in   Overcast
6:53 AM 51.1 °F 30.0 °F 44% 30.21 in 10.0 mi NE 10.4 mph - N/A   Overcast
7:53 AM 50.0 °F 30.0 °F 46% 30.23 in 10.0 mi NE 10.4 mph - N/A   Overcast
8:53 AM 48.9 °F 32.0 °F 52% 30.24 in 10.0 mi NE 5.8 mph - N/A   Overcast
9:53 AM 48.9 °F 33.1 °F 54% 30.25 in 10.0 mi NE 10.4 mph - N/A   Overcast
10:53 AM 50.0 °F 34.0 °F 54% 30.25 in 10.0 mi NNE 10.4 mph - N/A   Overcast
11:53 AM 50.0 °F 35.1 °F 57% 30.23 in 10.0 mi NE 8.1 mph - N/A   Overcast
12:53 PM 50.0 °F 37.0 °F 61% 30.20 in 10.0 mi NE 6.9 mph - N/A   Overcast
1:28 PM 51.8 °F 37.4 °F 58% 30.20 in 10.0 mi ENE 9.2 mph - N/A   Overcast
1:39 PM 51.8 °F 37.4 °F 58% 30.19 in 10.0 mi NE 8.1 mph - N/A   Overcast
1:53 PM 51.1 °F 37.9 °F 61% 30.18 in 10.0 mi NE 9.2 mph - N/A   Overcast
2:53 PM 51.1 °F 37.9 °F 61% 30.17 in 10.0 mi ENE 6.9 mph - N/A   Overcast
3:53 PM 51.1 °F 37.9 °F 61% 30.18 in 10.0 mi East 8.1 mph - N/A   Overcast
4:53 PM 50.0 °F 37.0 °F 61% 30.18 in 10.0 mi NE 9.2 mph - N/A   Overcast
5:53 PM 48.9 °F 37.0 °F 64% 30.19 in 10.0 mi NE 6.9 mph - N/A   Overcast
6:53 PM 48.9 °F 37.0 °F 64% 30.19 in 10.0 mi NE 6.9 mph - N/A   Overcast
7:53 PM 48.9 °F 37.0 °F 64% 30.19 in 10.0 mi NE 8.1 mph - N/A   Overcast
8:53 PM 48.9 °F 36.0 °F 61% 30.19 in 10.0 mi ENE 5.8 mph - N/A   Overcast
9:53 PM 48.9 °F 35.1 °F 59% 30.20 in 10.0 mi NE 6.9 mph - N/A   Overcast
10:53 PM 48.9 °F 36.0 °F 61% 30.20 in 10.0 mi NE 4.6 mph - N/A   Overcast
11:53 PM 48.9 °F 37.0 °F 64% 30.18 in 10.0 mi NNE 8.1 mph - N/A   Overcast